TimeMST,TemperatureF,Dew PointF,Humidity,Sea Level PressureIn,VisibilityMPH,Wind Direction,Wind SpeedMPH,Gust SpeedMPH,PrecipitationIn,Events,Conditions,WindDirDegrees,DateUTC
12:15 AM,51.8,32.0,47,30.11,10.0,Calm,Calm,-,N/A,,Clear,0,2013-10-14 07:15:00
12:35 AM,51.8,32.0,47,30.11,10.0,Calm,Calm,-,N/A,,Clear,0,2013-10-14 07:35:00
12:55 AM,51.8,32.0,47,30.12,10.0,WSW,3.5,-,N/A,,Clear,240,2013-10-14 07:55:00
1:15 AM,50.0,32.0,50,30.12,10.0,Calm,Calm,-,N/A,,Clear,0,2013-10-14 08:15:00
1:35 AM,48.2,32.0,54,30.12,10.0,Calm,Calm,-,N/A,,Clear,0,2013-10-14 08:35:00
1:55 AM,50.0,32.0,50,30.12,10.0,Calm,Calm,-,N/A,,Clear,0,2013-10-14 08:55:00
2:15 AM,48.2,32.0,54,30.12,10.0,Calm,Calm,-,N/A,,Clear,0,2013-10-14 09:15:00
2:35 AM,50.0,32.0,50,30.11,10.0,Calm,Calm,-,N/A,,Clear,0,2013-10-14 09:35:00
2:55 AM,46.4,32.0,57,30.12,10.0,Calm,Calm,-,N/A,,Clear,0,2013-10-14 09:55:00
3:15 AM,46.4,32.0,57,30.12,10.0,Calm,Calm,-,N/A,,Clear,0,2013-10-14 10:15:00
3:35 AM,46.4,32.0,57,30.12,10.0,Calm,Calm,-,N/A,,Clear,0,2013-10-14 10:35:00
3:55 AM,46.4,32.0,57,30.12,10.0,Calm,Calm,-,N/A,,Clear,0,2013-10-14 10:55:00
4:15 AM,44.6,32.0,61,30.12,10.0,Calm,Calm,-,N/A,,Clear,0,2013-10-14 11:15:00
4:35 AM,44.6,32.0,61,30.12,10.0,Calm,Calm,-,N/A,,Clear,0,2013-10-14 11:35:00
4:55 AM,44.6,33.8,66,30.12,10.0,ESE,3.5,-,N/A,,Clear,110,2013-10-14 11:55:00
5:15 AM,44.6,32.0,61,30.13,10.0,Calm,Calm,-,N/A,,Clear,0,2013-10-14 12:15:00
5:35 AM,42.8,32.0,66,30.14,10.0,Calm,Calm,-,N/A,,Clear,0,2013-10-14 12:35:00
5:55 AM,42.8,32.0,66,30.14,10.0,Calm,Calm,-,N/A,,Clear,0,2013-10-14 12:55:00
6:15 AM,42.8,32.0,66,30.14,10.0,Calm,Calm,-,N/A,,Clear,0,2013-10-14 13:15:00
6:35 AM,41.0,32.0,70,30.15,10.0,Calm,Calm,-,N/A,,Clear,0,2013-10-14 13:35:00
6:55 AM,42.8,32.0,66,30.15,10.0,Calm,Calm,-,N/A,,Clear,0,2013-10-14 13:55:00
7:15 AM,42.8,32.0,66,30.16,10.0,Calm,Calm,-,N/A,,Clear,0,2013-10-14 14:15:00
7:35 AM,44.6,33.8,66,30.16,10.0,Calm,Calm,-,N/A,,Clear,0,2013-10-14 14:35:00
7:55 AM,48.2,33.8,58,30.17,10.0,Calm,Calm,-,N/A,,Clear,0,2013-10-14 14:55:00
8:15 AM,53.6,33.8,47,30.17,10.0,Calm,Calm,-,N/A,,Clear,0,2013-10-14 15:15:00
8:35 AM,55.4,33.8,44,30.17,10.0,Calm,Calm,-,N/A,,Clear,0,2013-10-14 15:35:00
8:55 AM,57.2,30.2,36,30.18,10.0,Calm,Calm,-,N/A,,Clear,0,2013-10-14 15:55:00
9:15 AM,57.2,32.0,38,30.18,10.0,Calm,Calm,-,N/A,,Clear,0,2013-10-14 16:15:00
9:35 AM,59.0,32.0,36,30.18,10.0,Variable,5.8,-,N/A,,Clear,0,2013-10-14 16:35:00
9:55 AM,60.8,30.2,31,30.18,10.0,Variable,6.9,-,N/A,,Clear,0,2013-10-14 16:55:00
10:15 AM,60.8,24.8,25,30.18,10.0,Variable,6.9,-,N/A,,Clear,0,2013-10-14 17:15:00
10:35 AM,60.8,24.8,25,30.18,10.0,WNW,5.8,13.8,N/A,,Clear,300,2013-10-14 17:35:00
10:55 AM,60.8,23.0,23,30.17,10.0,WSW,8.1,-,N/A,,Clear,250,2013-10-14 17:55:00
11:15 AM,62.6,23.0,22,30.17,10.0,West,8.1,-,N/A,,Clear,270,2013-10-14 18:15:00
11:35 AM,62.6,26.6,26,30.16,10.0,WSW,10.4,-,N/A,,Clear,250,2013-10-14 18:35:00
11:55 AM,62.6,26.6,26,30.15,10.0,West,8.1,15.0,N/A,,Clear,270,2013-10-14 18:55:00
12:15 PM,64.4,26.6,24,30.15,10.0,WSW,8.1,-,N/A,,Clear,250,2013-10-14 19:15:00
12:35 PM,64.4,23.0,21,30.14,10.0,West,8.1,-,N/A,,Clear,280,2013-10-14 19:35:00
12:55 PM,64.4,23.0,21,30.13,10.0,West,10.4,16.1,N/A,,Clear,270,2013-10-14 19:55:00
1:15 PM,64.4,21.2,19,30.13,10.0,Variable,4.6,11.5,N/A,,Clear,0,2013-10-14 20:15:00
1:35 PM,64.4,15.8,15,30.12,10.0,Variable,6.9,13.8,N/A,,Clear,0,2013-10-14 20:35:00
1:55 PM,66.2,19.4,17,30.11,10.0,WSW,6.9,12.7,N/A,,Clear,240,2013-10-14 20:55:00
2:15 PM,66.2,19.4,17,30.11,10.0,SSW,8.1,16.1,N/A,,Clear,200,2013-10-14 21:15:00
2:35 PM,66.2,19.4,17,30.11,10.0,SW,10.4,-,N/A,,Clear,230,2013-10-14 21:35:00
2:55 PM,66.2,21.2,18,30.10,10.0,Variable,6.9,-,N/A,,Clear,0,2013-10-14 21:55:00
3:15 PM,66.2,21.2,18,30.10,10.0,Variable,6.9,13.8,N/A,,Clear,0,2013-10-14 22:15:00
3:35 PM,66.2,21.2,18,30.10,10.0,WSW,8.1,13.8,N/A,,Clear,250,2013-10-14 22:35:00
3:55 PM,66.2,21.2,18,30.10,10.0,Variable,6.9,12.7,N/A,,Clear,0,2013-10-14 22:55:00
4:15 PM,66.2,21.2,18,30.10,10.0,WSW,11.5,-,N/A,,Clear,250,2013-10-14 23:15:00
4:35 PM,66.2,21.2,18,30.10,10.0,SW,4.6,-,N/A,,Clear,230,2013-10-14 23:35:00
4:55 PM,64.4,21.2,19,30.10,10.0,West,6.9,-,N/A,,Clear,280,2013-10-14 23:55:00
5:15 PM,64.4,19.4,18,30.10,10.0,Calm,Calm,-,N/A,,Clear,0,2013-10-15 00:15:00
5:35 PM,62.6,21.2,20,30.10,10.0,WSW,4.6,-,N/A,,Clear,250,2013-10-15 00:35:00
5:55 PM,60.8,21.2,22,30.10,10.0,West,4.6,-,N/A,,Clear,270,2013-10-15 00:55:00
6:15 PM,59.0,21.2,23,30.10,10.0,West,4.6,-,N/A,,Clear,270,2013-10-15 01:15:00
6:35 PM,59.0,23.0,25,30.10,10.0,West,3.5,-,N/A,,Clear,270,2013-10-15 01:35:00
6:55 PM,59.0,23.0,25,30.11,10.0,West,4.6,-,N/A,,Clear,270,2013-10-15 01:55:00
7:15 PM,59.0,24.8,27,30.11,10.0,West,3.5,-,N/A,,Clear,280,2013-10-15 02:15:00
7:35 PM,55.4,24.8,31,30.12,10.0,Calm,Calm,-,N/A,,Clear,0,2013-10-15 02:35:00
7:55 PM,55.4,24.8,31,30.12,10.0,Calm,Calm,-,N/A,,Clear,0,2013-10-15 02:55:00
8:15 PM,53.6,23.0,30,30.13,10.0,Calm,Calm,-,N/A,,Clear,0,2013-10-15 03:15:00
8:35 PM,51.8,24.8,35,30.13,10.0,Calm,Calm,-,N/A,,Clear,0,2013-10-15 03:35:00
8:55 PM,51.8,23.0,33,30.13,10.0,NNW,3.5,-,N/A,,Clear,340,2013-10-15 03:55:00
9:15 PM,50.0,23.0,35,30.13,10.0,NNW,4.6,-,N/A,,Clear,340,2013-10-15 04:15:00
9:35 PM,48.2,23.0,37,30.13,10.0,ESE,3.5,-,N/A,,Clear,110,2013-10-15 04:35:00
9:55 PM,51.8,21.2,30,30.13,10.0,NE,3.5,-,N/A,,Clear,50,2013-10-15 04:55:00
10:15 PM,50.0,21.2,32,30.13,10.0,ENE,3.5,-,N/A,,Clear,60,2013-10-15 05:15:00
10:35 PM,50.0,23.0,35,30.13,10.0,Calm,Calm,-,N/A,,Clear,0,2013-10-15 05:35:00
10:55 PM,46.4,23.0,40,30.12,10.0,Calm,Calm,-,N/A,,Clear,0,2013-10-15 05:55:00
11:15 PM,46.4,23.0,40,30.12,10.0,Calm,Calm,-,N/A,,Clear,0,2013-10-15 06:15:00
11:35 PM,46.4,23.0,40,30.12,10.0,Calm,Calm,-,N/A,,Clear,0,2013-10-15 06:35:00
11:55 PM,44.6,23.0,43,30.11,10.0,Calm,Calm,-,N/A,,Clear,0,2013-10-15 06:55:00